Regional Weather Roundup
Issued by NWS Kansas City/Pleasant Hill, MO

Home | Current Version | Previous Version | Graphics & Text | Print | Product List | Glossary Off
Versions: 1 2 3 4 5 6 7 8 9 10 11 12 13 14 15 16 17 18 19 20 21 22 23 24 25 26 27 28 29 30 31 32 33 34 35 36 37 38 39 40 41 42 43 44 45 46 47 48 49 50

000
ASUS43 KEAX 020404
RWREAX

WEATHER ROUNDUP FOR EASTERN KANSAS AND NORTHWEST MISSOURI
NATIONAL WEATHER SERVICE KANSAS CITY/PLEASANT HILL MO
1100 PM CDT WED JUL 01 2015

KSZ040-057-103>105-MOZ028-029-037-043-020500-
...KANSAS CITY METROPOLITAN AREA...

CITY           SKY/WX    TMP DP  RH WIND       PRES   REMARKS
K.C. INTL      PTCLDY    77  73  87 NE9       29.84R
K.C. DOWNTOWN  MOCLDY    77  74  90 E8        29.82R
LEES SUMMIT    CLOUDY    72  66  81 E5        29.83R
OLATHE - IXD   CLOUDY    76  67  73 NE13G18   29.82R
OLATHE - OJC   CLOUDY    74  68  81 NE10      29.81R
LAWRENCE       MOCLDY    79  74  84 NE9       29.81R

$$

MOZ001>008-011>017-020>025-030>033-038>040-044>046-053-054-020500-
...NORTHERN AND CENTRAL MISSOURI...

CITY           SKY/WX    TMP DP  RH WIND       PRES   REMARKS
ST. JOSEPH     CLOUDY    76  70  82 E15G22    29.85R
MOSBY          PTCLDY    77  72  83 NE8       29.85R
HARRISONVILLE  MOCLDY    73  70  88 E3        29.83S
WHITEMAN AFB   MOCLDY    72  71  95 E8        29.84R
CLINTON        CLOUDY    73  73 100 NE10G17   29.82R
SEDALIA        CLOUDY    72  68  87 E6        29.86R
WARSAW         NOT AVBL
CHILLICOTHE      N/A     75  69  81 NE9       29.89R
KIRKSVILLE     LGT RAIN  69  67  93 E12       29.93R FOG

$$

MOZ041-047>049-056>058-063>065-088>090-097-020500-
...EASTERN AND SOUTHERN MISSOURI...

CITY           SKY/WX    TMP DP  RH WIND       PRES   REMARKS
ST. LOUIS INTL MOCLDY    73  70  90 E3        29.87S
SPIRIT OF STL  LGT RAIN  71  69  93 CALM      29.87S
COLUMBIA       CLOUDY    71  69  93 NE10      29.87S
JEFFERSON CITY LGT RAIN  72  70  93 CALM      29.84F
ROLLA          TSTM      74  72  93 VRB3      29.86R
LEBANON        CLOUDY    77  72  83 S13       29.83F
OSAGE BEACH    CLOUDY    70  66  88 SW14      29.89S THUNDER
SPRINGFIELD    CLOUDY    79  71  76 SW17      29.84F
BRANSON          N/A     79  68  69 CALM      29.88F
JOPLIN         PTCLDY    83  70  64 SW16G29   29.81R
WEST PLAINS    CLOUDY    76  73  91 S6        29.89R
MALDEN         PTCLDY    81  75  83 S6        29.89R

$$

IAZ060-094-KSZ022-034>040-054-083-096-NEZ052-066-093-020500-
...KANSAS...SOUTHEAST NEBRASKA AND IOWA...

CITY           SKY/WX    TMP DP  RH WIND       PRES   REMARKS
TOPEKA         CLEAR     79  75  87 NE6       29.82R
MANHATTAN      CLEAR     80  74  81 NE12      29.83R
EMPORIA        CLEAR     78  72  81 N7        29.79R
CHANUTE        CLEAR     84  71  65 SW18G24   29.77S
WICHITA        PTCLDY    81  66  60 CALM      29.82R
OMAHA          PTCLDY    72  66  81 E5        29.92R
LINCOLN        CLOUDY    76  69  79 E12       29.91R
FALLS CITY     MOCLDY    75  69  81 E10       29.86R
LAMONI         MOCLDY    69  65  86 NE7       29.93R
DES MOINES     MOCLDY    67  57  70 E9        29.95R

$$




USA.gov is the U.S. government's official web portal to all federal, state and local government web resources and services.